Content
SEND FEEDBACK

Daily
Averages
Monthly
Summary
United Kingdom

LONDON, ENGLAND


Home > Europe > United Kingdom > England
Elevation: 61 meters     Latitude: 51 09N     Longitude: 000 11W

WEATHER
 
SELECT A DAY
Number of Records: 292,605;   Date Range: 7/1/96 - 7/20/14
 
SHARE

PRINT THIS DATA

[ ← Previous Day ]
WEATHER ALMANAC - 29 OCTOBER, 2013
[ Next Day → ]
[ °F ]   °C
Weather ElementAverageHighLow
Temperature8.7 °C13 °C (12:50 pm)5 °C (10:50 pm)
Dewpoint5.2 °C7 °C (9:50 am)3 °C (5:20 pm)
Humidity79.5 %93 % (4:20 am)58 % (1:50 pm)
Barometer1011.5 hPa1019 hPa (11:50 pm)1003 hPa (12:50 am)
Wind Speed13.7 km/h25.9 km/h (1:20 pm)
Weather ElementAverage
Visibility10 km
Wind DirectionWSW (232.1 °)

Weather ElementTotal
Precipitation---
Heating Degree Days9.3 (Base 18.3)
Averaged from 47 records on 29 October, 2013
WEATHER CONDITIONS BREAKOUT
WIND DIRECTION BREAKOUT
WEATHER BY HOUR - 29 OCTOBER, 2013
[ °F ]   °C
Local TimeTemperatureDewpointHumidityBarometerVisibilityWind DirectionWind SpeedGust SpeedPrecipitationEventsConditions
12:50 AM9 °C6 °C82 %1003 hPaSW (230°)14.8 km/hClear
1:20 AM9 °C6 °C82 %1004.1 hPaWSW (250°)20.4 km/hClear
1:50 AM8 °C6 °C87 %1004.1 hPaWSW (240°)16.7 km/hClear
2:20 AM8 °C6 °C87 %1005.1 hPaWSW (240°)13 km/hClear
2:50 AM8 °C6 °C87 %1005.1 hPaSW (230°)14.8 km/hClear
3:20 AM8 °C6 °C87 %1005.1 hPaSW (230°)13 km/hClear
3:50 AM8 °C6 °C87 %1006.1 hPaSW (230°)11.1 km/hClear
4:20 AM7 °C6 °C93 %1006.1 hPaSW (230°)11.1 km/hClear
4:50 AM7 °C6 °C93 %1006.1 hPaSW (230°)9.3 km/hClear
5:20 AM7 °C6 °C93 %1007.1 hPaSSW (210°)9.3 km/hClear
5:50 AM7 °C6 °C93 %1007.1 hPaSW (220°)7.4 km/hClear
6:20 AM7 °C6 °C93 %1007.1 hPaSSW (210°)9.3 km/hClear
6:50 AM7 °C5 °C87 %1008.1 hPaSW (220°)9.3 km/hClear
7:20 AM7 °C5 °C87 %1009.1 hPaSW (220°)11.1 km/hClear
7:50 AM8 °C6 °C87 %1009.1 hPaSW (230°)11.1 km/hClear
8:20 AM8 °C6 °C87 %1009.1 hPaSW (230°)14.8 km/hClear
8:50 AM9 °C6 °C82 %1010.2 hPaSW (230°)14.8 km/hClear
9:20 AM10 °C6 °C76 %1010.2 hPa10 kmSW (230°)16.7 km/hPartly Cloudy
9:50 AM11 °C7 °C76 %1010.2 hPa10 kmWSW (250°)13 km/hPartly Cloudy
10:20 AM11 °C7 °C76 %1011.2 hPa10 kmWSW (250°)14.8 km/hScattered Clouds
10:50 AM11 °C7 °C76 %1011.2 hPa10 kmWSW (250°)20.4 km/hScattered Clouds
11:20 AM11 °C7 °C76 %1012.2 hPa10 kmWest (260°)20.4 km/hMostly Cloudy
11:50 AM12 °C6 °C67 %1012.2 hPa10 kmWest (280°)20.4 km/hMostly Cloudy
12:20 PM12 °C6 °C67 %1012.2 hPa10 kmWest (270°)22.2 km/hMostly Cloudy
12:50 PM13 °C6 °C63 %1012.2 hPa10 kmWest (280°)22.2 km/hMostly Cloudy
1:20 PM13 °C6 °C63 %1012.2 hPa10 kmWest (270°)25.9 km/hMostly Cloudy
1:50 PM13 °C5 °C58 %1012.2 hPa10 kmWNW (290°)24.1 km/hMostly Cloudy
2:20 PM12 °C4 °C58 %1013.2 hPa10 kmWNW (290°)24.1 km/hPartly Cloudy
2:50 PM12 °C4 °C58 %1013.2 hPa10 kmWest (280°)18.5 km/hPartly Cloudy
3:20 PM12 °C5 °C62 %1013.2 hPa10 kmWest (260°)22.2 km/hPartly Cloudy
3:50 PM11 °C4 °C62 %1014.2 hPa10 kmWSW (250°)18.5 km/hPartly Cloudy
4:20 PM10 °C4 °C66 %1014.2 hPaWest (260°)16.7 km/hClear
4:50 PM9 °C4 °C71 %1014.2 hPa10 kmWSW (250°)13 km/hPartly Cloudy
5:20 PM8 °C3 °C71 %1015.2 hPaWSW (250°)7.4 km/hClear
5:50 PM8 °C4 °C76 %1015.2 hPaWSW (240°)9.3 km/hClear
6:20 PM8 °C4 °C76 %1015.2 hPaSW (230°)9.3 km/hClear
6:50 PM7 °C4 °C81 %1016.3 hPa10 kmSW (220°)9.3 km/hPartly Cloudy
7:20 PM7 °C4 °C81 %1016.3 hPaSW (220°)11.1 km/hClear
7:50 PM8 °C5 °C81 %1016.3 hPaWSW (240°)13 km/hClear
8:20 PM7 °C4 °C81 %1017.3 hPaWSW (250°)13 km/hClear
8:50 PM7 °C5 °C87 %1017.3 hPaWSW (240°)9.3 km/hClear
9:20 PM7 °C4 °C81 %1017.3 hPaSW (230°)9.3 km/hClear
9:50 PM6 °C4 °C87 %1017.9 hPaSW (220°)9.3 km/hClear
10:20 PM6 °C4 °C87 %1017.9 hPaSW (230°)7.4 km/hClear
10:50 PM5 °C4 °C93 %1017.9 hPaVariable3.7 km/hClear
11:20 PM5 °C4 °C93 %1017.9 hPaWSW (240°)5.6 km/hClear
11:50 PM5 °C4 °C93 %1019 hPaVariable3.7 km/hClear
Hourly data recorded from EGKK, located 0 kilometers away from London, England







STORIES FROM OUR PARTNERS